Location: Voyageurs National Park
(48.5020°N, 92.9292°W)
Time: 15:37:27
(UTC-05:00)

Amateur Radio Satellites - All Passes

Search period start: 26 May 2017 15:07
Search period end: 27 May 2017 15:07
Location: Voyageurs National Park, 48.5020°N, 92.9292°W

Satellite Date Start Highest point End Downlink Frequencies (MHz)
Time Altitude Azimuth
AO-85 26 May 15:11:01 15:13:04 14° 248° (WSW) 15:15:12 145.980
AO-7 26 May 15:12:24 15:20:36 71° 65° (ENE) 15:28:53 .
SPROUT 26 May 15:13:54 15:16:32 16° 300° (WNW) 15:19:09 437.525
BEESAT 26 May 15:14:43 15:18:03 18° 91° (E) 15:21:22 436.000
VELOX 1 26 May 15:18:14 15:20:57 16° 301° (WNW) 15:23:40 145.980
Oscar 19 26 May 15:28:47 15:31:10 13° 274° (W) 15:33:35 437.125/150
50 SAT 26 May 15:32:54 15:34:10 12° 299° (WNW) 15:35:26 437.505
UKube-1 26 May 15:46:10 15:49:48 27° 296° (WNW) 15:53:25 .
DX 1 26 May 15:54:06 15:57:02 18° 300° (WNW) 15:59:57 434.975-435.025
O/OREOS (USA 219) 26 May 15:57:17 15:57:29 10° 264° (W) 15:57:40 437.305
BEESAT 2 26 May 16:02:26 16:05:54 27° 243° (WSW) 16:09:19 435.950
NO-84 26 May 16:08:51 16:12:33 46° 220° (SW) 16:15:55 435.350 FM
ITUPSAT 1 26 May 16:17:46 16:22:35 66° 103° (ESE) 16:27:22 437.325
ITAMSAT 1 26 May 16:26:59 16:31:42 35° 263° (W) 16:36:27 435.822/435.867
MOZHAYETS 4 26 May 16:34:39 16:39:17 60° 101° (E) 16:43:52
CUTE-I 26 May 16:44:26 16:47:02 14° 52° (NE) 16:49:38 437.470
BEESAT 26 May 16:51:30 16:56:14 62° 289° (WNW) 17:00:58 436.000
DOVE 4 26 May 17:01:16 17:04:51 24° 65° (ENE) 17:08:19 437.250
HO-68 26 May 17:02:06 17:04:56 13° 40° (NE) 17:07:47 435.675
AO-7 26 May 17:06:57 17:14:02 31° 266° (W) 17:21:12 .
CUBESAT XI-V 26 May 17:20:32 17:24:49 35° 96° (E) 17:29:03 437.345
LilacSat-2 26 May 17:25:44 17:28:41 21° 65° (ENE) 17:31:40 437.200
KKS-1 26 May 17:28:43 17:32:46 33° 97° (E) 17:36:46 437.445
ITUPSAT 1 26 May 17:56:33 17:59:56 19° 301° (WNW) 18:03:20 437.325
XW-2D 26 May 17:59:16 18:02:55 45° 71° (ENE) 18:06:37 145.860 - 145.880
STARS 26 May 17:59:51 18:03:46 31° 96° (E) 18:07:40 437.465
XW-2B 26 May 18:07:08 18:10:51 53° 72° (ENE) 18:14:37 145.730 - 145.750
MOZHAYETS 4 26 May 18:12:42 18:16:02 20° 300° (WNW) 18:19:21
NUDT-PHONESAT 26 May 18:18:55 18:22:34 57° 73° (ENE) 18:26:16 437.300
XW-2F 26 May 18:19:41 18:23:28 72° 75° (ENE) 18:27:18 145.980 - 146.000
XW-2C 26 May 18:20:41 18:24:30 77° 75° (ENE) 18:28:22 145.795 - 145.815
CUTE-I 26 May 18:20:55 18:26:12 73° 72° (ENE) 18:31:31 437.470
KAITUO 1B 26 May 18:27:18 18:31:04 73° 74° (ENE) 18:34:52 145.475/437.950
BEESAT 26 May 18:32:13 18:33:04 10° 308° (NW) 18:33:55 436.000
DOVE 4 26 May 18:38:02 18:42:23 42° 262° (W) 18:46:32 437.250
HO-68 26 May 18:44:12 18:50:58 46° 62° (ENE) 18:57:45 435.675
XW-2A 26 May 18:50:19 18:52:47 19° 66° (ENE) 18:55:18 145.665 - 145.685
CUTE 1.7 + AOD 2 26 May 18:57:30 19:01:20 32° 67° (ENE) 19:05:11 437.475
CUBESAT XI-V 26 May 18:58:02 19:02:08 31° 295° (WNW) 19:06:12 437.345
PCSat 26 May 18:58:25 19:02:25 21° 108° (ESE) 19:06:26 145.827
LilacSat-2 26 May 18:59:10 19:02:46 37° 263° (W) 19:06:24 437.200
KKS-1 26 May 19:05:23 19:09:15 30° 295° (WNW) 19:13:08 437.445
AAUSAT CUBESAT 2 26 May 19:12:17 19:14:56 16° 61° (ENE) 19:17:35 437.432
ZACube-1 26 May 19:25:06 19:27:09 13° 57° (ENE) 19:29:14 437.345
XW-2D 26 May 19:34:50 19:37:21 17° 269° (W) 19:39:54 145.860 - 145.880
CUBEBUG 2 26 May 19:35:34 19:39:27 38° 69° (ENE) 19:43:26 437.445
STARS 26 May 19:36:12 19:40:05 32° 294° (WNW) 19:43:58 437.465
XW-2B 26 May 19:43:14 19:45:22 14° 270° (W) 19:47:32 145.730 - 145.750
UWE-3 26 May 19:45:58 19:49:42 31° 67° (ENE) 19:53:32 435.000/436.395/437.385
SEEDS 26 May 19:46:14 19:50:27 65° 73° (ENE) 19:54:41 437.485
NUDT-PHONESAT 26 May 19:55:04 19:56:51 13° 271° (W) 19:58:38 437.300
XW-2F 26 May 19:57:08 19:58:05 11° 273° (W) 19:59:04 145.980 - 146.000
XW-2C 26 May 19:58:59 19:59:14 10° 273° (W) 19:59:28 145.795 - 145.815
CUTE-I 26 May 20:03:16 20:06:48 18° 271° (W) 20:10:23 437.470
KAITUO 1B 26 May 20:04:47 20:05:35 10° 273° (W) 20:06:22 145.475/437.950
Oscar 11 26 May 20:18:18 20:22:06 30° 66° (ENE) 20:25:56 .
STRAND 1 26 May 20:20:47 20:25:45 45° 99° (E) 20:30:40 437.568
XW-2A 26 May 20:22:22 20:25:22 30° 263° (W) 20:28:25 145.665 - 145.685
Tancredo 1 26 May 20:23:52 20:25:39 15° 138° (SE) 20:27:27 437.200
HO-68 26 May 20:31:58 20:38:44 43° 262° (W) 20:45:34 435.675
CUTE 1.7 + AOD 2 26 May 20:33:26 20:37:10 29° 265° (W) 20:40:56 437.475
PCSat 26 May 20:39:52 20:45:17 71° 307° (NW) 20:50:45 145.827
AO-73 26 May 20:44:31 20:48:42 65° 73° (ENE) 20:53:01 145.935
AAUSAT CUBESAT 2 26 May 20:45:49 20:49:57 61° 260° (W) 20:54:07 437.432
ISS 26 May 20:55:25 20:57:51 19° 140° (SE) 21:00:17 437.550
ZACube-1 26 May 20:58:32 21:02:47 83° 258° (WSW) 21:07:10 437.345
DELFI C3 26 May 21:04:34 21:07:54 26° 66° (ENE) 21:11:13 145.870
EO-88 26 May 21:07:00 21:09:36 19° 64° (ENE) 21:12:13 145.990 - 145.960
CUBEBUG 2 26 May 21:12:54 21:16:14 23° 268° (W) 21:19:38 437.445
UWE-3 26 May 21:22:30 21:26:10 29° 266° (W) 21:29:56 435.000/436.395/437.385
SEEDS 26 May 21:24:15 21:26:35 14° 272° (W) 21:28:55 437.485
FO-29 26 May 21:43:49 21:47:33 16° 87° (E) 21:51:30 435.910
M-CUBED/EXP-1 PRIME 26 May 21:45:16 21:48:24 37° 104° (ESE) 21:51:27 437.505
Oscar 11 26 May 21:54:19 21:58:12 31° 264° (W) 22:02:07 .
Tancredo 1 26 May 21:57:55 22:00:59 75° 155° (SSE) 22:04:04 437.200
STRAND 1 26 May 22:00:20 22:04:44 29° 297° (WNW) 22:09:07 437.568
SO-50 26 May 22:10:31 22:13:36 18° 112° (ESE) 22:16:38 436.795
ESTCUBE 1 26 May 22:12:24 22:14:44 14° 57° (ENE) 22:17:04 437.505/2401.250
AO-73 26 May 22:23:04 22:25:26 14° 272° (W) 22:27:49 145.935
PCSat 26 May 22:25:42 22:29:40 20° 329° (NNW) 22:33:38 145.827
ISS 26 May 22:30:41 22:34:00 88° 158° (SSE) 22:37:19 437.550
DELFI C3 26 May 22:38:58 22:42:34 32° 264° (W) 22:46:11 145.870
EO-88 26 May 22:39:35 22:43:02 39° 262° (W) 22:46:31 145.990 - 145.960
TIGRISAT 26 May 22:40:48 22:44:51 30° 95° (E) 22:48:55 435.000
SPROUT 26 May 23:01:22 23:02:28 11° 56° (NE) 23:03:34 437.525
VELOX 1 26 May 23:07:30 23:09:42 14° 57° (ENE) 23:11:53 145.980
UNISAT 6 26 May 23:12:17 23:16:51 63° 101° (ESE) 23:21:29 437.425
PRISM 26 May 23:16:29 23:20:35 83° 104° (ESE) 23:24:38 437.425
M-CUBED/EXP-1 PRIME 26 May 23:20:26 23:22:38 17° 303° (WNW) 23:24:47 437.505
LO-87 26 May 23:21:52 23:25:25 89° 244° (WSW) 23:28:59 145.935 - 145.965
FO-29 26 May 23:27:03 23:33:24 78° 104° (ESE) 23:40:33 435.910
Tancredo 1 26 May 23:33:54 23:36:53 45° 355° (N) 23:39:52 437.200
DX 1 26 May 23:42:58 23:44:35 12° 56° (NE) 23:46:13 434.975-435.025
ESTCUBE 1 26 May 23:46:20 23:50:53 87° 262° (W) 23:55:28 437.505/2401.250
SO-50 26 May 23:48:59 23:53:34 72° 312° (NW) 23:58:06 436.795
YUBILEINY 26 May 23:54:10 23:58:59 16° 72° (ENE) 00:03:50 435.215
ISS 27 May 00:07:29 00:10:42 46° 358° (N) 00:13:54 437.550
PCSat 27 May 00:14:02 00:15:20 11° 355° (N) 00:16:37 145.827
TIGRISAT 27 May 00:17:23 00:21:34 36° 292° (WNW) 00:25:48 435.000
NANOSAT C BR1 27 May 00:23:50 00:27:19 24° 94° (E) 00:30:47 145.865
POLYITAN 1 27 May 00:28:26 00:32:12 29° 95° (E) 00:35:57 437.675
SPROUT 27 May 00:33:25 00:37:38 80° 75° (ENE) 00:41:54 437.525
50 SAT 27 May 00:34:00 00:37:14 39° 71° (ENE) 00:40:30 437.505
DUCHIFAT 1 27 May 00:34:16 00:37:56 27° 95° (E) 00:41:35 145.980
QB50P2 27 May 00:36:57 00:40:58 38° 98° (E) 00:44:58 145.880/145.840
AIST 2D 27 May 00:39:35 00:43:11 80° 102° (ESE) 00:46:45 435.315
VELOX 1 27 May 00:41:06 00:45:31 86° 256° (WSW) 00:49:58 145.980
UNISAT 6 27 May 00:49:57 00:53:08 19° 299° (WNW) 00:56:21 437.425
BUGSAT 1 27 May 00:52:18 00:54:35 14° 90° (E) 00:56:51 437.445
PRISM 27 May 00:53:33 00:55:15 12° 303° (WNW) 00:56:57 437.425
RS-15 27 May 00:57:55 01:05:58 21° 97° (E) 01:14:06 29.354- 29.394
UKube-1 27 May 01:07:36 01:11:45 49° 70° (ENE) 01:15:55 .
Tancredo 1 27 May 01:09:52 01:12:55 60° 15° (NNE) 01:15:58 437.200
FO-29 27 May 01:13:08 01:18:00 24° 301° (WNW) 01:23:17 435.910
EO-79 27 May 01:13:52 01:18:08 84° 100° (E) 01:22:25 145.935-145.965
DX 1 27 May 01:15:43 01:20:04 83° 77° (ENE) 01:24:27 434.975-435.025
ESTCUBE 1 27 May 01:27:08 01:28:22 11° 274° (W) 01:29:37 437.505/2401.250
SO-50 27 May 01:31:33 01:34:47 19° 332° (NNW) 01:38:01 436.795
Gurwin Techsat 1B 27 May 01:36:35 01:37:55 11° 84° (E) 01:39:14 435.225
ISS 27 May 01:44:10 01:47:28 71° 17° (NNE) 01:50:44 437.550
YUBILEINY 27 May 01:45:28 01:54:07 71° 94° (E) 02:02:51 435.215
ITUPSAT 1 27 May 01:52:18 01:55:30 18° 58° (ENE) 01:58:43 437.325
Oscar 19 27 May 01:54:07 01:58:21 25° 93° (E) 02:02:33 437.125/150
PCSat 27 May 01:58:08 02:01:13 15° 22° (NNE) 02:04:19 145.827
NANOSAT C BR1 27 May 01:59:12 02:03:08 38° 292° (WNW) 02:07:04 145.865
POLYITAN 1 27 May 02:04:11 02:07:58 32° 293° (WNW) 02:11:46 437.675
MOZHAYETS 4 27 May 02:05:47 02:08:00 13° 56° (NE) 02:10:14
50 SAT 27 May 02:08:10 02:10:18 15° 268° (W) 02:12:26 437.505
DUCHIFAT 1 27 May 02:09:49 02:13:37 33° 293° (WNW) 02:17:26 145.980
SPROUT 27 May 02:12:36 02:14:07 12° 273° (W) 02:15:38 437.525
QB50P2 27 May 02:13:06 02:16:36 25° 296° (WNW) 02:20:05 145.880/145.840
AIST 2D 27 May 02:15:31 02:15:48 10° 301° (WNW) 02:16:06 435.315
VELOX 1 27 May 02:22:07 02:22:40 10° 274° (W) 02:23:13 145.980
BEESAT 27 May 02:24:19 02:28:32 33° 65° (ENE) 02:32:48 436.000
BUGSAT 1 27 May 02:26:15 02:30:20 63° 287° (WNW) 02:34:27 437.445
UKube-1 27 May 02:44:56 02:48:03 19° 268° (W) 02:51:11 .
Tancredo 1 27 May 02:45:45 02:48:35 33° 214° (SSW) 02:51:23 437.200
EO-79 27 May 02:51:19 02:53:17 13° 302° (WNW) 02:55:17 145.935-145.965
DX 1 27 May 02:55:19 02:56:51 12° 272° (W) 02:58:23 434.975-435.025
RS-15 27 May 03:04:08 03:16:11 72° 120° (ESE) 03:28:29 29.354- 29.394
AO-7 27 May 03:11:19 03:16:20 17° 86° (E) 03:21:19 .
Gurwin Techsat 1B 27 May 03:13:28 03:18:49 73° 104° (ESE) 03:24:07 435.225
SO-50 27 May 03:16:12 03:17:03 10° 357° (N) 03:17:53 436.795
ISS 27 May 03:20:53 03:23:46 29° 216° (SW) 03:26:39 437.550
ITUPSAT 1 27 May 03:28:03 03:32:49 71° 257° (WSW) 03:37:38 437.325
Oscar 19 27 May 03:32:57 03:37:57 51° 291° (WNW) 03:42:54 437.125/150
MOZHAYETS 4 27 May 03:39:50 03:44:27 87° 75° (ENE) 03:49:07
PCSat 27 May 03:40:53 03:46:05 43° 46° (NE) 03:51:15 145.827
YUBILEINY 27 May 03:44:12 03:51:44 31° 297° (WNW) 03:59:23 435.215
BEESAT 27 May 04:01:56 04:06:16 35° 263° (W) 04:10:39 436.000
CUBESAT XI-V 27 May 04:27:01 04:31:36 52° 71° (ENE) 04:36:12 437.345
KKS-1 27 May 04:30:03 04:34:19 49° 70° (ENE) 04:38:36 437.445
O/OREOS (USA 219) 27 May 04:30:04 04:34:33 56° 111° (ESE) 04:39:04 437.305
ITAMSAT 1 27 May 04:35:11 04:40:21 60° 102° (ESE) 04:45:31 435.822/435.867
Gurwin Techsat 1B 27 May 04:54:23 04:58:13 20° 302° (WNW) 05:02:02 435.225
SO-50 27 May 04:56:44 04:59:27 15° 22° (NNE) 05:02:08 436.795
STARS 27 May 04:59:44 05:03:52 44° 69° (ENE) 05:08:01 437.465
AO-7 27 May 05:02:10 05:10:34 73° 107° (ESE) 05:18:55 .
RS-15 27 May 05:17:39 05:29:34 52° 328° (NNW) 05:41:34 29.354- 29.394
MOZHAYETS 4 27 May 05:20:26 05:22:16 12° 274° (W) 05:24:07
PCSat 27 May 05:24:27 05:29:27 38° 246° (WSW) 05:34:25 145.827
AO-85 27 May 05:27:00 05:31:04 66° 125° (SE) 05:35:00 145.980
BEESAT 2 27 May 05:57:17 06:00:11 19° 114° (ESE) 06:03:06 435.950
STRAND 1 27 May 06:03:52 06:06:56 16° 56° (NE) 06:10:03 437.568
CUBESAT XI-V 27 May 06:05:43 06:09:16 21° 269° (W) 06:12:50 437.345
KKS-1 27 May 06:07:52 06:11:09 20° 268° (W) 06:14:26 437.445
O/OREOS (USA 219) 27 May 06:10:39 06:14:18 23° 311° (NW) 06:17:58 437.305
BEESAT 3 27 May 06:14:55 06:18:52 70° 126° (SE) 06:22:53 437.485
ITAMSAT 1 27 May 06:15:22 06:19:26 24° 301° (WNW) 06:23:29 435.822/435.867
LilacSat-2 27 May 06:29:01 06:31:47 18° 92° (E) 06:34:31 437.200
DOVE 4 27 May 06:32:29 06:36:18 34° 97° (E) 06:40:10 437.250
CUTE-I 27 May 06:34:43 06:38:46 22° 91° (E) 06:42:49 437.470
SO-50 27 May 06:36:32 06:40:57 49° 45° (NE) 06:45:20 436.795
STARS 27 May 06:37:02 06:40:25 22° 267° (W) 06:43:48 437.465
AO-7 27 May 06:55:33 07:02:45 34° 308° (NW) 07:09:58 .
M-CUBED/EXP-1 PRIME 27 May 07:01:50 07:03:56 14° 55° (NE) 07:05:57 437.505
XW-2D 27 May 07:02:00 07:05:40 39° 98° (E) 07:09:18 145.860 - 145.880
AO-85 27 May 07:08:42 07:11:49 21° 325° (NW) 07:14:53 145.980
XW-2B 27 May 07:09:55 07:13:40 46° 99° (E) 07:17:23 145.730 - 145.750
NUDT-PHONESAT 27 May 07:19:19 07:22:59 46° 99° (E) 07:26:38 437.300
XW-2F 27 May 07:22:02 07:25:53 62° 100° (E) 07:29:41 145.980 - 146.000
XW-2C 27 May 07:23:33 07:27:25 68° 102° (ESE) 07:31:15 145.795 - 145.815
KAITUO 1B 27 May 07:28:38 07:32:26 61° 102° (ESE) 07:36:10 145.475/437.950
BEESAT 2 27 May 07:33:39 07:37:35 55° 313° (NW) 07:41:35 435.950
RS-15 27 May 07:34:24 07:45:37 37° 1° (N) 07:56:38 29.354- 29.394
STRAND 1 27 May 07:40:20 07:45:26 88° 255° (WSW) 07:50:36 437.568
XW-2A 27 May 07:41:27 07:42:57 12° 90° (E) 07:44:26 145.665 - 145.685
BEESAT 3 27 May 07:53:45 07:56:53 21° 326° (NW) 08:00:02 437.485
HO-68 27 May 07:55:05 08:01:28 33° 94° (E) 08:07:49 435.675
LilacSat-2 27 May 08:02:34 08:06:16 42° 289° (WNW) 08:09:56 437.200
DOVE 4 27 May 08:10:28 08:13:55 26° 294° (WNW) 08:17:25 437.250
CUTE 1.7 + AOD 2 27 May 08:13:51 08:17:50 37° 97° (E) 08:21:47 437.475
CUTE-I 27 May 08:13:58 08:19:14 62° 290° (WNW) 08:24:30 437.470
SO-50 27 May 08:17:24 08:21:11 26° 244° (WSW) 08:24:57 436.795
AAUSAT CUBESAT 2 27 May 08:25:04 08:27:41 16° 90° (E) 08:30:17 437.432
AO-73 27 May 08:31:02 08:32:01 11° 85° (E) 08:32:59 145.935
M-CUBED/EXP-1 PRIME 27 May 08:33:48 08:37:58 76° 251° (WSW) 08:41:50 437.505
PRISM 27 May 08:36:33 08:38:20 13° 57° (ENE) 08:40:07 437.425
XW-2D 27 May 08:36:45 08:39:37 20° 296° (WNW) 08:42:29 145.860 - 145.880
UNISAT 6 27 May 08:41:24 08:42:57 12° 56° (NE) 08:44:31 437.425
ZACube-1 27 May 08:43:50 08:46:41 16° 89° (E) 08:49:32 437.345
XW-2B 27 May 08:44:55 08:47:32 18° 297° (WNW) 08:50:09 145.730 - 145.750
AO-7 27 May 08:50:39 08:53:01 11° 333° (NNW) 08:55:24 .
NUDT-PHONESAT 27 May 08:54:03 08:56:34 17° 297° (WNW) 08:59:03 437.300
XW-2F 27 May 08:57:30 08:59:33 14° 299° (WNW) 09:01:35 145.980 - 146.000
CUBEBUG 2 27 May 08:58:07 09:02:38 55° 100° (E) 09:07:13 437.445
XW-2C 27 May 08:59:14 09:01:06 13° 300° (WNW) 09:02:58 145.795 - 145.815
SEEDS 27 May 09:01:42 09:05:57 77° 104° (ESE) 09:10:08 437.485
KAITUO 1B 27 May 09:03:56 09:05:58 14° 299° (WNW) 09:07:59 145.475/437.950
NO-84 27 May 09:04:46 09:08:47 36° 136° (SE) 09:12:41 435.350 FM
UWE-3 27 May 09:07:06 09:11:30 43° 98° (E) 09:15:55 435.000/436.395/437.385
XW-2A 27 May 09:12:38 09:16:00 50° 287° (WNW) 09:19:21 145.665 - 145.685
BEESAT 2 27 May 09:14:01 09:16:13 14° 334° (NNW) 09:18:26 435.950
STRAND 1 27 May 09:23:02 09:25:23 13° 273° (W) 09:27:44 437.568
Oscar 11 27 May 09:37:10 09:41:12 36° 97° (E) 09:45:13 .
HO-68 27 May 09:42:31 09:49:34 59° 294° (WNW) 09:56:36 435.675
TIGRISAT 27 May 09:43:04 09:47:02 38° 68° (ENE) 09:51:05 435.000
FO-29 27 May 09:44:24 09:49:21 47° 67° (ENE) 09:54:33 435.910
RS-15 27 May 09:49:27 10:01:32 54° 34° (NNE) 10:13:07 29.354- 29.394
CUTE 1.7 + AOD 2 27 May 09:49:59 09:53:31 25° 295° (WNW) 09:57:01 437.475
CUTE-I 27 May 09:56:21 09:58:16 12° 310° (NW) 10:00:11 437.470
YUBILEINY 27 May 09:56:52 09:59:26 11° 41° (NE) 10:02:01 435.215
AAUSAT CUBESAT 2 27 May 09:59:25 10:03:29 54° 288° (WNW) 10:07:30 437.432
AO-73 27 May 10:04:22 10:08:56 84° 106° (ESE) 10:13:31 145.935
EO-88 27 May 10:05:36 10:07:34 14° 90° (E) 10:09:32 145.990 - 145.960
PRISM 27 May 10:08:52 10:13:00 84° 255° (WSW) 10:17:09 437.425
DELFI C3 27 May 10:12:07 10:15:20 23° 94° (E) 10:18:31 145.870
UNISAT 6 27 May 10:14:37 10:18:55 83° 77° (ENE) 10:23:20 437.425
ZACube-1 27 May 10:18:51 10:23:23 66° 287° (WNW) 10:27:55 437.345
CUBEBUG 2 27 May 10:35:30 10:38:54 21° 297° (WNW) 10:42:21 437.445
EO-79 27 May 10:36:34 10:38:33 13° 58° (ENE) 10:40:31 145.935-145.965
SEEDS 27 May 10:38:54 10:41:04 14° 301° (WNW) 10:43:14 437.485
NO-84 27 May 10:41:59 10:46:18 60° 335° (NNW) 10:50:24 435.350 FM
UWE-3 27 May 10:43:59 10:47:44 26° 296° (WNW) 10:51:33 435.000/436.395/437.385
Oscar 11 27 May 11:13:32 11:17:13 27° 295° (WNW) 11:20:53 .
AIST 2D 27 May 11:17:12 11:20:37 49° 73° (ENE) 11:24:05 435.315
NANOSAT C BR1 27 May 11:19:19 11:22:55 29° 66° (ENE) 11:26:34 145.865
TIGRISAT 27 May 11:20:19 11:23:51 24° 267° (W) 11:27:26 435.000
POLYITAN 1 27 May 11:24:22 11:28:11 35° 67° (ENE) 11:32:02 437.675
DUCHIFAT 1 27 May 11:29:26 11:33:10 33° 67° (ENE) 11:36:55 145.980
FO-29 27 May 11:30:33 11:34:48 25° 268° (W) 11:39:14 435.910
HO-68 27 May 11:31:52 11:35:54 16° 316° (NW) 11:39:56 435.675
QB50P2 27 May 11:32:51 11:36:52 46° 70° (ENE) 11:40:55 145.880/145.840
ESTCUBE 1 27 May 11:36:13 11:38:53 15° 89° (E) 11:41:31 437.505/2401.250
EO-88 27 May 11:37:58 11:41:34 51° 287° (WNW) 11:45:09 145.990 - 145.960
AO-73 27 May 11:42:05 11:44:33 15° 302° (WNW) 11:47:01 145.935
BUGSAT 1 27 May 11:45:40 11:48:16 17° 61° (ENE) 11:50:52 437.445
DELFI C3 27 May 11:46:37 11:50:11 33° 292° (WNW) 11:53:43 145.870
YUBILEINY 27 May 11:50:54 11:59:16 44° 69° (ENE) 12:07:36 435.215
UNISAT 6 27 May 11:54:54 11:56:17 11° 274° (W) 11:57:42 437.425
ZACube-1 27 May 11:58:17 11:58:49 10° 305° (NW) 11:59:20 437.345
RS-15 27 May 12:02:35 12:14:39 67° 241° (WSW) 12:26:07 29.354- 29.394
EO-79 27 May 12:09:31 12:13:42 82° 257° (WSW) 12:17:56 145.935-145.965
AO-85 27 May 12:14:21 12:17:47 27° 39° (NE) 12:21:21 145.980
SPROUT 27 May 12:17:55 12:18:41 10° 87° (E) 12:19:25 437.525
LO-87 27 May 12:18:21 12:21:54 66° 102° (ESE) 12:25:26 145.935 - 145.965
NO-84 27 May 12:20:37 12:24:27 32° 355° (N) 12:28:04 435.350 FM
AO-7 27 May 12:27:45 12:30:47 12° 29° (NNE) 12:33:48 .
VELOX 1 27 May 12:28:45 12:30:58 14° 89° (E) 12:33:12 145.980
BEESAT 2 27 May 12:33:35 12:35:23 12° 23° (NNE) 12:37:11 435.950
BEESAT 3 27 May 12:51:10 12:54:30 24° 36° (NE) 12:57:47 437.485
AIST 2D 27 May 12:52:23 12:54:07 13° 270° (W) 12:55:54 435.315
NANOSAT C BR1 27 May 12:54:52 12:58:36 31° 264° (W) 13:02:21 145.865
O/OREOS (USA 219) 27 May 12:57:21 13:01:20 29° 52° (NE) 13:05:16 437.305
Gurwin Techsat 1B 27 May 12:59:44 13:04:09 27° 61° (ENE) 13:08:35 435.225
POLYITAN 1 27 May 13:00:33 13:04:03 25° 266° (W) 13:07:34 437.675
DX 1 27 May 13:02:35 13:03:34 11° 87° (E) 13:04:35 434.975-435.025
DUCHIFAT 1 27 May 13:05:18 13:08:52 27° 265° (W) 13:12:27 145.980
QB50P2 27 May 13:09:49 13:12:54 20° 268° (W) 13:16:00 145.880/145.840
ESTCUBE 1 27 May 13:11:39 13:16:09 67° 287° (WNW) 13:20:37 437.505/2401.250
Oscar 19 27 May 13:14:17 13:19:20 53° 69° (ENE) 13:24:23 437.125/150
BUGSAT 1 27 May 13:19:19 13:23:14 54° 259° (W) 13:27:12 437.445
50 SAT 27 May 13:26:10 13:28:59 23° 95° (E) 13:31:46 437.505
YUBILEINY 27 May 13:47:50 13:56:15 51° 271° (W) 14:04:38 435.215
SPROUT 27 May 13:50:54 13:55:13 89° 288° (WNW) 13:59:30 437.525
LO-87 27 May 13:53:33 13:54:50 12° 300° (WNW) 13:56:09 145.935 - 145.965
AO-85 27 May 13:54:29 13:58:20 45° 238° (WSW) 14:02:21 145.980
NO-84 27 May 13:58:51 14:02:44 41° 16° (NNE) 14:06:19 435.350 FM
VELOX 1 27 May 14:03:33 14:07:56 72° 287° (WNW) 14:12:18 145.980
BEESAT 2 27 May 14:10:15 14:14:10 43° 45° (NE) 14:18:03 435.950
AO-7 27 May 14:13:51 14:21:12 37° 54° (NE) 14:28:36 .
RS-15 27 May 14:17:27 14:24:32 18° 266° (W) 14:31:28 29.354- 29.394
ITAMSAT 1 27 May 14:19:13 14:23:09 23° 59° (ENE) 14:27:06 435.822/435.867
UKube-1 27 May 14:26:28 14:30:41 52° 101° (E) 14:34:53 .
BEESAT 3 27 May 14:28:25 14:32:23 58° 237° (WSW) 14:36:18 437.485
DX 1 27 May 14:36:02 14:40:24 89° 296° (WNW) 14:44:44 434.975-435.025
O/OREOS (USA 219) 27 May 14:36:38 14:40:51 39° 252° (WSW) 14:45:00 437.305
Gurwin Techsat 1B 27 May 14:38:41 14:43:50 51° 260° (W) 14:49:02 435.225
ESTCUBE 1 27 May 14:51:28 14:52:06 10° 306° (NW) 14:52:43 437.505/2401.250
Oscar 19 27 May 14:54:45 14:58:57 24° 268° (W) 15:03:10 437.125/150
50 SAT 27 May 14:58:58 15:01:49 25° 293° (WNW) 15:04:38 437.505
